1514224800.84,59627,8.94,73642.8,-5.63,-6.55,-6.55,0,*5F
1514224802.04,59628,8.94,73646.8,-5.63,-6.55,-6.55,0,*50
1514224803.26,59629,8.94,73642.3,-5.65,-6.59,-6.59,0,*57
1514224804.49,59630,8.94,73656.5,-5.65,-6.59,-6.59,0,*5F
1514224805.69,59631,8.94,73648.5,-5.63,-6.55,-6.55,0,*58
1514224806.91,59632,8.94,73646.5,-5.65,-6.59,-6.51,0,*55
1514224808.14,59633,8.94,73644.8,-5.65,-6.59,-6.59,0,*5C
1514224809.36,59634,8.94,73648.8,-5.65,-6.59,-6.51,0,*53
1514224810.59,59635,8.94,73636.3,-5.65,-6.59,-6.51,0,*52
1514224811.81,59636,8.94,73648.5,-5.65,-6.59,-6.59,0,*59
1514224813.01,59637,8.94,73652.3,-5.67,-6.59,-6.59,0,*5A
1514224814.24,59638,8.94,73660.0,-5.65,-6.51,-6.51,0,*57
1514224815.46,59639,8.94,73658.3,-5.65,-6.51,-6.59,0,*5E
1514224816.69,59640,8.94,73640.3,-5.65,-6.59,-6.51,0,*50
1514224817.91,59641,8.94,73644.5,-5.65,-6.59,-6.59,0,*59
1514224819.14,59642,8.94,73658.5,-5.65,-6.51,-6.51,0,*5A
1514224820.36,59643,8.94,73656.3,-5.65,-6.51,-6.59,0,*53
1514224821.56,59644,8.94,73654.3,-5.67,-6.59,-6.51,0,*56
1514224822.79,59645,8.94,73656.3,-5.65,-6.51,-6.59,0,*55
1514224824.02,59646,8.94,73664.3,-5.65,-6.59,-6.51,0,*56
1514224825.24,59647,8.94,73660.3,-5.65,-6.51,-6.51,0,*5F
1514224826.47,59648,8.94,73660.3,-5.65,-6.59,-6.51,0,*58
1514224827.69,59649,8.94,73650.5,-5.65,-6.59,-6.59,0,*51
1514224828.92,59650,8.94,73654.8,-5.65,-6.51,-6.51,0,*59
1514224830.14,59651,8.94,73662.3,-5.65,-6.59,-6.59,0,*58
1514224831.34,59652,8.94,73664.3,-5.63,-6.55,-6.47,0,*5E
1514224832.55,59653,8.88,73670.3,-5.63,-6.55,-6.47,0,*5F
1514224833.74,59654,8.94,73670.5,-5.63,-6.47,-6.55,0,*58
1514224834.94,59655,8.94,73674.8,-5.63,-6.47,-6.55,0,*59
1514224836.14,59656,8.94,73672.0,-5.63,-6.55,-6.47,0,*5A
1514224837.37,59657,8.94,73676.0,-5.65,-6.51,-6.59,0,*56
1514224838.6,59658,8.94,73672.5,-5.65,-6.59,-6.51,0,*59
1514224839.82,59659,8.94,73670.8,-5.65,-6.51,-6.51,0,*50
1514224841.03,59660,8.94,73680.0,-5.63,-6.55,-6.47,0,*5F
1514224842.23,59661,8.94,73674.8,-5.63,-6.55,-6.55,0,*5D
1514224843.42,59662,8.94,73678.3,-5.63,-6.47,-6.47,0,*5E
1514224844.65,59663,8.94,73682.5,-5.65,-6.51,-6.59,0,*51
1514224845.88,59664,8.88,73664.8,-5.65,-6.51,-6.59,0,*56
1514224847.1,59665,8.94,73672.3,-5.65,-6.59,-6.59,0,*5F
1514224848.33,59666,8.88,73676.5,-5.65,-6.51,-6.51,0,*5C
1514224849.55,59667,8.94,73668.8,-5.65,-6.59,-6.59,0,*5D
1514224850.8,59668,8.94,73664.5,-5.65,-6.63,-6.59,0,*5B
1514224852.02,59669,8.94,73664.5,-5.65,-6.59,-6.51,0,*5B
1514224853.24,59670,8.94,73670.5,-5.65,-6.59,-6.59,0,*5B
1514224854.44,59671,8.88,73670.0,-5.63,-6.47,-6.55,0,*5F
1514224855.67,59672,8.94,73674.5,-5.65,-6.51,-6.59,0,*51
1514224856.89,59673,8.94,73680.8,-5.65,-6.59,-6.51,0,*50
1514224858.12,59674,8.94,73686.5,-5.65,-6.59,-6.59,0,*5F
1514224859.35,59675,8.94,73670.5,-5.65,-6.51,-6.51,0,*5E
1514224860.57,59676,8.94,73668.5,-5.65,-6.51,-6.51,0,*5D
1514224861.8,59677,8.88,73656.8,-5.65,-6.51,-6.51,0,*5C
1514224863.03,59678,8.94,73660.8,-5.65,-6.51,-6.59,0,*5B
1514224864.25,59679,8.94,73670.8,-5.65,-6.59,-6.51,0,*5A
1514224865.48,59680,8.94,73676.5,-5.65,-6.51,-6.59,0,*5C
1514224866.68,59681,8.94,73666.8,-5.67,-6.59,-6.51,0,*5F
1514224867.88,59682,8.94,73660.8,-5.63,-6.55,-6.55,0,*50
1514224869.08,59683,8.94,73664.0,-5.67,-6.51,-6.59,0,*5D
1514224870.3,59684,8.94,73672.5,-5.65,-6.59,-6.59,0,*50
1514224871.53,59685,8.88,73682.0,-5.65,-6.59,-6.59,0,*51
1514224872.75,59686,8.88,73666.0,-5.65,-6.59,-6.51,0,*5A
1514224873.98,59687,8.94,73670.3,-5.65,-6.51,-6.51,0,*53
1514224875.2,59688,8.94,73666.5,-5.65,-6.59,-6.59,0,*5C
1514224876.43,59689,8.94,73670.3,-5.65,-6.51,-6.59,0,*55
1514224877.66,59690,8.94,73662.5,-5.65,-6.59,-6.51,0,*5D
1514224878.88,59691,8.94,73654.8,-5.65,-6.59,-6.59,0,*54
1514224880.1,59692,8.94,73656.8,-5.65,-6.59,-6.51,0,*5F
1514224881.33,59693,8.94,73660.8,-5.65,-6.51,-6.59,0,*5E
1514224882.58,59694,8.94,73654.5,-5.65,-6.59,-6.63,0,*58
1514224883.78,59695,8.88,73668.5,-5.67,-6.59,-6.59,0,*52
1514224885.0,59696,8.94,73674.3,-5.65,-6.59,-6.51,0,*5B
1514224886.24,59697,8.94,73676.5,-5.65,-6.63,-6.59,0,*5B
1514224887.47,59698,8.94,73656.5,-5.65,-6.51,-6.51,0,*5D
1514224888.69,59699,8.88,73674.8,-5.65,-6.59,-6.59,0,*5C
1514224889.94,59700,8.88,73676.8,-5.65,-6.59,-6.63,0,*54
1514224891.17,59701,8.94,73670.3,-5.65,-6.59,-6.59,0,*5C
1514224892.41,59702,8.94,73658.8,-5.65,-6.63,-6.59,0,*56
1514224893.63,59703,8.94,73672.0,-5.65,-6.59,-6.59,0,*5E
1514224894.86,59704,8.94,73674.5,-5.65,-6.59,-6.51,0,*51
1514224896.08,59705,8.94,73674.0,-5.65,-6.59,-6.59,0,*58
1514224897.31,59706,8.94,73668.5,-5.65,-6.51,-6.59,0,*53
1514224898.51,59707,8.94,73674.3,-5.67,-6.59,-6.51,0,*50
1514224899.73,59708,8.94,73666.3,-5.65,-6.59,-6.59,0,*55
1514224900.93,59709,8.94,73660.8,-5.67,-6.51,-6.59,0,*5E
1514224902.13,59710,8.94,73656.3,-5.63,-6.55,-6.55,0,*5A
1514224903.35,59711,8.94,73654.3,-5.65,-6.59,-6.59,0,*5D
1514224904.58,59712,8.94,73668.0,-5.65,-6.51,-6.59,0,*56
1514224905.81,59713,8.88,73652.8,-5.65,-6.59,-6.59,0,*5F
1514224907.03,59714,8.94,73666.8,-5.65,-6.59,-6.51,0,*50
1514224908.23,59715,8.94,73656.5,-5.67,-6.59,-6.59,0,*5B
1514224909.45,59716,8.88,73664.0,-5.65,-6.59,-6.51,0,*52
1514224910.68,59717,8.94,73670.0,-5.65,-6.59,-6.51,0,*53
1514224911.9,59718,8.94,73670.3,-5.65,-6.59,-6.51,0,*5C
1514224913.12,59719,8.94,73670.3,-5.65,-6.59,-6.59,0,*55
1514224914.32,59720,8.94,73662.8,-5.67,-6.59,-6.51,0,*55
1514224915.52,59721,8.94,73666.3,-5.67,-6.59,-6.59,0,*5C
1514224916.75,59722,8.94,73672.3,-5.65,-6.51,-6.59,0,*55
1514224917.97,59723,8.94,73670.5,-5.65,-6.59,-6.59,0,*5C
1514224919.2,59724,8.94,73666.8,-5.65,-6.59,-6.59,0,*5B
1514224920.42,59725,8.94,73676.3,-5.65,-6.59,-6.59,0,*5A
1514224921.64,59726,8.88,73684.3,-5.65,-6.59,-6.51,0,*51
1514224922.87,59727,8.88,73688.5,-5.65,-6.59,-6.51,0,*50
1514224924.09,59728,8.88,73682.8,-5.65,-6.59,-6.59,0,*57
1514224925.29,59729,8.88,73684.8,-5.67,-6.59,-6.59,0,*54
1514224926.51,59730,8.94,73694.0,-5.65,-6.59,-6.51,0,*56
1514224927.74,59731,8.94,73686.5,-5.65,-6.51,-6.59,0,*57
1514224928.97,59732,8.94,73682.8,-5.65,-6.51,-6.59,0,*54
1514224930.17,59733,8.94,73686.8,-5.67,-6.59,-6.51,0,*57
1514224931.37,59734,8.94,73688.5,-5.67,-6.51,-6.51,0,*58
1514224932.59,59735,8.94,73690.5,-5.65,-6.59,-6.59,0,*5B
1514224933.82,59736,8.88,73686.8,-5.65,-6.59,-6.51,0,*50
1514224935.04,59737,8.94,73688.3,-5.65,-6.59,-6.51,0,*51
1514224936.27,59738,8.88,73684.0,-5.65,-6.59,-6.51,0,*5E
1514224937.49,59739,8.94,73684.8,-5.65,-6.59,-6.59,0,*57
1514224938.71,59740,8.88,73672.8,-5.65,-6.59,-6.59,0,*59
1514224939.94,59741,8.94,73684.5,-5.65,-6.59,-6.51,0,*50
1514224941.16,59742,8.94,73694.3,-5.65,-6.59,-6.59,0,*5B
1514224942.39,59743,8.94,73702.3,-5.65,-6.59,-6.59,0,*5A
1514224943.61,59744,8.94,73702.5,-5.65,-6.51,-6.59,0,*55
1514224944.84,59745,8.88,73698.0,-5.65,-6.59,-6.51,0,*54
1514224946.06,59746,8.94,73696.0,-5.65,-6.59,-6.51,0,*57
1514224947.26,59747,8.94,73688.3,-5.67,-6.59,-6.59,0,*5C
1514224948.48,59748,8.94,73684.5,-5.65,-6.59,-6.51,0,*59
1514224949.71,59749,8.88,73678.3,-5.65,-6.59,-6.51,0,*58
1514224950.91,59750,8.94,73678.5,-5.67,-6.51,-6.51,0,*5A
1514224952.13,59751,8.94,73668.0,-5.65,-6.59,-6.51,0,*51
1514224953.36,59752,8.94,73664.0,-5.65,-6.59,-6.59,0,*5A
1514224954.58,59753,8.94,73666.3,-5.65,-6.59,-6.59,0,*5B
1514224955.78,59754,8.94,73668.0,-5.67,-6.59,-6.59,0,*5E
1514224957.0,59755,8.94,73676.0,-5.65,-6.59,-6.51,0,*55
1514224958.23,59756,8.94,73676.0,-5.65,-6.59,-6.59,0,*5E
1514224959.45,59757,8.88,73674.0,-5.65,-6.59,-6.59,0,*5F
1514224960.68,59758,8.94,73686.0,-5.65,-6.59,-6.51,0,*58
1514224961.9,59759,8.94,73686.3,-5.65,-6.59,-6.51,0,*59
1514224963.12,59760,8.88,73684.3,-5.65,-6.59,-6.59,0,*5B
1514224964.35,59761,8.88,73682.8,-5.65,-6.59,-6.59,0,*5A
1514224965.55,59762,8.94,73686.3,-5.67,-6.51,-6.59,0,*53
1514224966.77,59763,8.94,73676.5,-5.65,-6.59,-6.59,0,*58
1514224968.0,59764,8.94,73680.5,-5.65,-6.59,-6.59,0,*5F
1514224969.22,59765,8.94,73676.5,-5.65,-6.59,-6.59,0,*5E
1514224970.44,59766,8.94,73686.3,-5.65,-6.59,-6.59,0,*5D
1514224971.64,59767,8.94,73682.0,-5.67,-6.59,-6.59,0,*5E
1514224972.84,59768,8.94,73684.0,-5.67,-6.59,-6.51,0,*59
1514224974.04,59769,8.88,73688.5,-5.67,-6.59,-6.59,0,*50
1514224975.26,59770,8.94,73692.0,-5.65,-6.59,-6.51,0,*52
1514224976.46,59771,8.88,73686.3,-5.67,-6.59,-6.59,0,*59
1514224977.69,59772,8.94,73676.0,-5.65,-6.59,-6.51,0,*50
1514224978.91,59773,8.94,73682.3,-5.65,-6.59,-6.51,0,*51
1514224980.11,59774,8.94,73680.5,-5.67,-6.59,-6.59,0,*5C
1514224981.33,59775,8.94,73680.0,-5.65,-6.59,-6.51,0,*57
1514224982.56,59776,8.94,73688.3,-5.65,-6.51,-6.59,0,*54
1514224983.79,59777,8.94,73700.0,-5.65,-6.51,-6.59,0,*55
1514224984.98,59778,8.94,73698.5,-5.67,-6.59,-6.51,0,*58
1514224986.21,59779,8.94,73688.8,-5.65,-6.59,-6.51,0,*5B
1514224987.41,59780,8.94,73688.5,-5.67,-6.59,-6.59,0,*57
1514224988.6,59781,8.94,73684.5,-5.67,-6.59,-6.51,0,*5E
1514224989.8,59782,8.94,73682.3,-5.67,-6.59,-6.59,0,*55
1514224991.03,59783,8.94,73684.5,-5.65,-6.59,-6.59,0,*56
1514224992.27,59784,8.94,73682.0,-5.65,-6.63,-6.59,0,*58
1514224993.47,59785,8.94,73666.8,-5.67,-6.59,-6.59,0,*52
1514224994.69,59786,8.94,73674.8,-5.65,-6.59,-6.51,0,*5B
1514224995.89,59787,8.94,73686.8,-5.67,-6.59,-6.51,0,*58
1514224997.11,59788,8.94,73676.5,-5.65,-6.59,-6.59,0,*5D
1514224998.34,59789,8.94,73676.3,-5.65,-6.59,-6.59,0,*5C
1514224999.56,59790,8.88,73666.5,-5.65,-6.59,-6.59,0,*54
1514225000.78,59791,8.88,73658.0,-5.65,-6.59,-6.59,0,*55
1514225002.01,59792,8.94,73680.5,-5.65,-6.59,-6.59,0,*56
1514225003.23,59793,8.88,73690.0,-5.65,-6.59,-6.59,0,*57
1514225004.43,59794,8.94,73670.5,-5.67,-6.59,-6.59,0,*52
1514225005.67,59795,8.94,73660.8,-5.65,-6.63,-6.51,0,*50
1514225006.87,59796,8.94,73666.0,-5.67,-6.59,-6.59,0,*50
1514225008.09,59797,8.94,73664.3,-5.65,-6.59,-6.51,0,*5B
1514225009.3,59798,8.94,73656.0,-5.67,-6.51,-6.51,0,*5E
1514225010.52,59799,8.94,73654.0,-5.65,-6.59,-6.51,0,*55
1514225011.74,59800,8.94,73660.3,-5.65,-6.59,-6.51,0,*5A
1514225012.94,59801,8.94,73652.3,-5.67,-6.59,-6.51,0,*59
1514225014.17,59802,8.94,73662.0,-5.65,-6.59,-6.51,0,*58
1514225015.39,59803,8.94,73658.8,-5.65,-6.59,-6.51,0,*59
1514225016.59,59804,8.94,73666.0,-5.67,-6.59,-6.59,0,*54
1514225017.79,59805,8.94,73678.8,-5.67,-6.51,-6.51,0,*55
1514225018.99,59806,8.94,73672.3,-5.67,-6.51,-6.51,0,*56
1514225020.22,59807,8.88,73668.3,-5.65,-6.59,-6.51,0,*5D
1514225021.44,59808,8.94,73670.0,-5.65,-6.59,-6.59,0,*5A
1514225022.67,59809,8.94,73670.5,-5.65,-6.51,-6.51,0,*5B
1514225023.87,59810,8.94,73682.5,-5.67,-6.59,-6.51,0,*59
1514225025.07,59811,8.94,73676.8,-5.67,-6.59,-6.51,0,*58
1514225026.27,59812,8.94,73682.0,-5.67,-6.51,-6.51,0,*53
1514225027.47,59813,8.94,73686.5,-5.67,-6.59,-6.59,0,*52
1514225028.67,59814,8.94,73686.8,-5.67,-6.51,-6.51,0,*55
1514225029.86,59815,8.88,73680.8,-5.67,-6.59,-6.59,0,*54
1514225031.09,59816,8.94,73688.8,-5.65,-6.51,-6.59,0,*5D
1514225032.31,59817,8.94,73688.5,-5.67,-6.59,-6.63,0,*5F
1514225033.51,59818,8.94,73684.8,-5.67,-6.51,-6.59,0,*51
1514225034.74,59819,8.94,73682.3,-5.65,-6.51,-6.59,0,*52
1514225035.94,59820,8.94,73688.0,-5.67,-6.59,-6.59,0,*52
1514225037.14,59821,8.94,73680.8,-5.67,-6.59,-6.59,0,*53
1514225038.36,59822,8.94,73678.5,-5.65,-6.51,-6.59,0,*5A
1514225039.61,59823,8.94,73680.8,-5.65,-6.63,-6.59,0,*5A
1514225040.8,59824,8.94,73676.8,-5.67,-6.59,-6.59,0,*56
1514225042.03,59825,8.94,73668.8,-5.65,-6.59,-6.51,0,*5D
1514225043.27,59826,8.94,73676.3,-5.65,-6.63,-6.51,0,*57
1514225044.49,59827,8.94,73668.0,-5.65,-6.59,-6.51,0,*5F
1514225045.72,59828,8.94,73664.3,-5.65,-6.59,-6.59,0,*58
1514225046.94,59829,8.94,73678.0,-5.65,-6.59,-6.59,0,*59
1514225048.17,59830,8.94,73686.0,-5.65,-6.59,-6.51,0,*59
1514225049.37,59831,8.94,73672.3,-5.67,-6.51,-6.59,0,*5A
1514225050.59,59832,8.94,73666.3,-5.65,-6.59,-6.59,0,*53
1514225051.79,59833,8.94,73662.0,-5.67,-6.59,-6.51,0,*58
1514225052.99,59834,8.94,73660.5,-5.67,-6.59,-6.59,0,*57
1514225054.19,59835,8.94,73644.5,-5.67,-6.59,-6.51,0,*5E
1514225055.41,59836,8.94,73640.0,-5.65,-6.51,-6.59,0,*5F
1514225056.66,59837,8.94,73652.5,-5.65,-6.63,-6.59,0,*5F
1514225057.88,59838,8.94,73652.5,-5.65,-6.59,-6.59,0,*59
1514225059.1,59839,8.94,73648.5,-5.65,-6.59,-6.59,0,*58
1514225060.31,59840,8.94,73654.3,-5.67,-6.51,-6.51,0,*54
1514225061.53,59841,8.94,73662.5,-5.65,-6.59,-6.59,0,*57
1514225062.75,59842,8.94,73660.5,-5.65,-6.59,-6.59,0,*54
1514225063.98,59843,8.94,73666.8,-5.65,-6.51,-6.59,0,*5D
1514225065.18,59844,8.88,73664.0,-5.67,-6.51,-6.59,0,*58
1514225066.41,59845,8.88,73666.5,-5.65,-6.51,-6.59,0,*5B
1514225067.61,59846,8.88,73666.5,-5.67,-6.51,-6.51,0,*52
1514225068.81,59847,8.94,73680.0,-5.67,-6.51,-6.59,0,*5B
1514225070.01,59848,8.88,73662.3,-5.67,-6.59,-6.59,0,*5C
1514225071.21,59849,8.94,73660.8,-5.67,-6.59,-6.59,0,*5D
1514225072.43,59850,8.94,73662.8,-5.65,-6.59,-6.59,0,*57
1514225073.65,59851,8.94,73662.8,-5.65,-6.59,-6.59,0,*56
1514225074.85,59852,8.94,73672.0,-5.67,-6.59,-6.51,0,*5F
1514225076.05,59853,8.94,73656.8,-5.67,-6.51,-6.51,0,*56
1514225077.28,59854,8.94,73658.3,-5.65,-6.51,-6.59,0,*5B
1514225078.52,59855,8.88,73648.8,-5.65,-6.63,-6.59,0,*5B
1514225079.75,59856,8.94,73646.5,-5.65,-6.59,-6.51,0,*59
1514225080.97,59857,8.94,73662.3,-5.65,-6.59,-6.59,0,*50
1514225082.17,59858,8.94,73658.0,-5.67,-6.51,-6.59,0,*55
1514225083.37,59859,8.94,73670.8,-5.67,-6.51,-6.51,0,*5C
1514225084.6,59860,8.88,73660.3,-5.65,-6.51,-6.51,0,*54
1514225085.82,59861,8.94,73664.0,-5.65,-6.59,-6.59,0,*55
1514225087.05,59862,8.94,73668.5,-5.65,-6.59,-6.59,0,*56
1514225088.25,59863,8.88,73678.8,-5.67,-6.51,-6.51,0,*55
1514225089.45,59864,8.94,73668.3,-5.67,-6.59,-6.59,0,*52
1514225090.67,59865,8.94,73674.8,-5.65,-6.59,-6.59,0,*51
1514225091.9,59866,8.88,73678.0,-5.65,-6.59,-6.59,0,*52
1514225093.09,59867,8.94,73676.8,-5.67,-6.59,-6.59,0,*51
1514225094.32,59868,8.94,73670.8,-5.65,-6.59,-6.59,0,*5C
1514225095.54,59869,8.94,73672.3,-5.65,-6.59,-6.59,0,*5D
1514225096.77,59870,8.94,73672.0,-5.65,-6.59,-6.59,0,*55
1514225097.99,59871,8.94,73674.8,-5.65,-6.59,-6.51,0,*5C
1514225099.19,59872,8.88,73664.3,-5.67,-6.59,-6.51,0,*5D
1514225100.39,59873,8.94,73668.0,-5.67,-6.51,-6.51,0,*54
1514225101.59,59874,8.94,73678.0,-5.67,-6.59,-6.51,0,*5B
1514225102.79,59875,8.94,73666.0,-5.67,-6.59,-6.59,0,*52
1514225104.01,59876,8.88,73666.3,-5.65,-6.59,-6.51,0,*5B
1514225105.21,59877,8.94,73666.5,-5.67,-6.51,-6.59,0,*58
1514225106.41,59878,8.94,73666.0,-5.67,-6.59,-6.51,0,*57
1514225107.63,59879,8.94,73676.0,-5.65,-6.59,-6.59,0,*5C
1514225108.83,59880,8.88,73674.5,-5.67,-6.51,-6.59,0,*50
1514225110.06,59881,8.94,73666.8,-5.65,-6.59,-6.51,0,*53
1514225111.26,59882,8.88,73674.5,-5.67,-6.59,-6.59,0,*5A
1514225112.48,59883,8.94,73678.0,-5.65,-6.59,-6.51,0,*51
1514225113.71,59884,8.94,73674.0,-5.65,-6.59,-6.51,0,*56
1514225114.93,59885,8.94,73674.0,-5.65,-6.59,-6.59,0,*5F
1514225116.13,59886,8.94,73680.3,-5.67,-6.59,-6.59,0,*5E
1514225117.33,59887,8.94,73668.8,-5.67,-6.51,-6.59,0,*57
1514225118.56,59888,8.94,73676.0,-5.65,-6.51,-6.51,0,*52
1514225119.77,59889,8.88,73672.8,-5.67,-6.63,-6.59,0,*58
1514225121.0,59890,8.94,73688.0,-5.65,-6.51,-6.59,0,*53
1514225122.22,59891,8.94,73678.8,-5.65,-6.59,-6.59,0,*5A
1514225123.45,59892,8.94,73670.5,-5.65,-6.51,-6.59,0,*51
1514225124.68,59893,8.94,73666.0,-5.65,-6.51,-6.59,0,*50
1514225125.88,59894,8.94,73666.3,-5.67,-6.51,-6.59,0,*55
1514225127.1,59895,8.88,73666.5,-5.65,-6.59,-6.51,0,*56
1514225128.33,59896,8.94,73674.5,-5.65,-6.59,-6.51,0,*55
1514225129.55,59897,8.94,73682.8,-5.65,-6.59,-6.59,0,*5C
1514225130.78,59898,8.94,73678.3,-5.65,-6.51,-6.51,0,*53
1514225131.98,59899,8.88,73674.8,-5.67,-6.59,-6.51,0,*58
1514225133.17,59900,8.94,73680.3,-5.67,-6.59,-6.51,0,*59
1514225134.4,59901,8.88,73674.8,-5.65,-6.51,-6.51,0,*52
1514225135.63,59902,8.88,73672.8,-5.65,-6.59,-6.59,0,*51
1514225136.83,59903,8.88,73670.3,-5.67,-6.51,-6.59,0,*5A
1514225138.02,59904,8.94,73672.8,-5.67,-6.59,-6.59,0,*55
1514225139.23,59905,8.94,73670.8,-5.67,-6.51,-6.59,0,*5C
1514225140.42,59906,8.94,73678.5,-5.67,-6.59,-6.51,0,*5F
1514225141.63,59907,8.88,73660.5,-5.67,-6.51,-6.51,0,*56
1514225142.83,59908,8.88,73674.0,-5.67,-6.51,-6.51,0,*59
1514225144.03,59909,8.94,73678.8,-5.67,-6.59,-6.51,0,*50
1514225145.25,59910,8.94,73682.5,-5.65,-6.59,-6.51,0,*5A
1514225146.47,59911,8.88,73672.5,-5.65,-6.59,-6.59,0,*53
1514225147.68,59912,8.88,73672.5,-5.67,-6.51,-6.51,0,*52
1514225148.87,59913,8.94,73672.0,-5.67,-6.59,-6.51,0,*5B
1514225150.07,59914,8.88,73678.3,-5.67,-6.59,-6.51,0,*5C
1514225151.3,59915,8.94,73678.3,-5.65,-6.51,-6.59,0,*5F
1514225152.5,59916,8.94,73690.5,-5.67,-6.59,-6.59,0,*56
1514225153.72,59917,8.94,73678.5,-5.65,-6.59,-6.51,0,*5D
1514225154.92,59918,8.94,73684.0,-5.67,-6.51,-6.51,0,*58
1514225156.12,59919,8.88,73678.3,-5.67,-6.59,-6.51,0,*51
1514225157.32,59920,8.94,73674.5,-5.67,-6.59,-6.51,0,*5B
1514225158.52,59921,8.88,73678.5,-5.67,-6.51,-6.51,0,*52
1514225159.72,59922,8.94,73690.0,-5.67,-6.51,-6.51,0,*51
1514225160.92,59923,8.88,73678.8,-5.67,-6.59,-6.51,0,*58
1514225162.12,59924,8.94,73682.0,-5.67,-6.59,-6.51,0,*5F
1514225163.32,59925,8.94,73676.0,-5.67,-6.51,-6.51,0,*56
1514225164.52,59926,8.88,73662.5,-5.67,-6.51,-6.59,0,*5D
1514225165.72,59927,8.88,73656.3,-5.67,-6.59,-6.51,0,*5C
1514225166.95,59928,8.94,73672.3,-5.65,-6.51,-6.51,0,*59
1514225168.15,59929,8.88,73680.8,-5.67,-6.59,-6.51,0,*52
1514225169.35,59930,8.94,73684.8,-5.67,-6.51,-6.51,0,*52
1514225170.55,59931,8.88,73698.5,-5.67,-6.51,-6.51,0,*53
1514225171.77,59932,8.94,73694.5,-5.65,-6.59,-6.51,0,*5A
1514225172.97,59933,8.88,73690.3,-5.67,-6.59,-6.51,0,*59
1514225174.17,59934,8.94,73688.8,-5.67,-6.51,-6.51,0,*56
1514225175.4,59935,8.94,73676.8,-5.65,-6.51,-6.51,0,*55
1514225176.6,59936,8.94,73682.5,-5.67,-6.51,-6.51,0,*54
1514225177.8,59937,8.94,73686.5,-5.67,-6.59,-6.51,0,*5D
1514225179.0,59938,8.94,73676.3,-5.67,-6.51,-6.59,0,*52
1514225180.23,59939,8.88,73676.3,-5.65,-6.59,-6.51,0,*51
1514225181.45,59940,8.94,73674.8,-5.65,-6.51,-6.51,0,*57
1514225182.68,59941,8.88,73672.0,-5.65,-6.59,-6.59,0,*56
1514225183.91,59942,8.94,73682.0,-5.65,-6.51,-6.59,0,*5D
1514225185.11,59943,8.94,73684.0,-5.67,-6.51,-6.51,0,*56
1514225186.33,59944,8.94,73680.3,-5.65,-6.59,-6.51,0,*5B
1514225187.53,59945,8.94,73682.5,-5.67,-6.51,-6.59,0,*58
1514225188.76,59946,8.88,73682.5,-5.65,-6.51,-6.59,0,*59
1514225189.96,59947,8.94,73686.0,-5.67,-6.59,-6.59,0,*52
1514225191.18,59948,8.94,73686.3,-5.65,-6.59,-6.51,0,*57
1514225192.38,59949,8.88,73678.3,-5.67,-6.51,-6.51,0,*5C
1514225193.59,59950,8.94,73690.3,-5.67,-6.51,-6.51,0,*54
1514225194.78,59951,8.94,73690.3,-5.67,-6.59,-6.51,0,*5D
1514225195.98,59952,8.94,73692.3,-5.67,-6.59,-6.59,0,*56
1514225197.18,59953,8.88,73686.8,-5.67,-6.59,-6.59,0,*57
1514225198.38,59954,8.88,73686.3,-5.67,-6.51,-6.51,0,*50
1514225199.58,59955,8.88,73686.8,-5.67,-6.51,-6.59,0,*59
1514225200.78,59956,8.94,73678.0,-5.67,-6.59,-6.51,0,*5A
1514225201.98,59957,8.94,73678.3,-5.67,-6.59,-6.59,0,*53
1514225203.18,59958,8.94,73680.8,-5.67,-6.59,-6.51,0,*54
1514225204.38,59959,8.94,73680.8,-5.67,-6.51,-6.59,0,*55
1514225205.58,59960,8.94,73680.0,-5.67,-6.59,-6.51,0,*5F
1514225206.77,59961,8.94,73680.0,-5.67,-6.59,-6.59,0,*56
1514225208.0,59962,8.88,73678.8,-5.65,-6.59,-6.59,0,*57
1514225209.2,59963,8.94,73672.3,-5.67,-6.59,-6.59,0,*54
1514225210.42,59964,8.94,73664.0,-5.65,-6.59,-6.51,0,*59
1514225211.65,59965,8.88,73660.0,-5.65,-6.51,-6.59,0,*58
1514225212.87,59966,8.94,73660.0,-5.65,-6.59,-6.59,0,*53
1514225214.1,59967,8.94,73662.0,-5.65,-6.59,-6.51,0,*5A
1514225215.29,59968,8.94,73664.8,-5.67,-6.59,-6.59,0,*5F
1514225216.5,59969,8.94,73666.0,-5.67,-6.51,-6.51,0,*5E
1514225217.69,59970,8.94,73664.8,-5.67,-6.59,-6.51,0,*5E
1514225218.92,59971,8.88,73660.3,-5.65,-6.51,-6.59,0,*5D
1514225220.12,59972,8.94,73670.8,-5.67,-6.59,-6.51,0,*5C
1514225221.32,59973,8.94,73682.0,-5.67,-6.59,-6.51,0,*5D
1514225222.51,59974,8.88,73674.5,-5.67,-6.59,-6.51,0,*5A
1514225223.74,59975,8.94,73674.3,-5.65,-6.59,-6.59,0,*51
1514225224.96,59976,8.88,73668.0,-5.65,-6.59,-6.51,0,*5A
1514225226.16,59977,8.94,73674.0,-5.67,-6.51,-6.51,0,*51
1514225227.37,59978,8.88,73664.5,-5.67,-6.51,-6.59,0,*56
1514225228.59,59979,8.88,73666.0,-5.65,-6.59,-6.51,0,*55
1514225229.82,59980,8.88,73666.0,-5.65,-6.51,-6.59,0,*53
1514225231.02,59981,8.94,73662.5,-5.67,-6.59,-6.59,0,*58
1514225232.24,59982,8.88,73660.3,-5.65,-6.59,-6.59,0,*59
1514225233.47,59983,8.88,73668.3,-5.65,-6.51,-6.51,0,*58
1514225234.69,59984,8.88,73676.5,-5.65,-6.51,-6.59,0,*57
1514225235.92,59985,8.88,73682.0,-5.65,-6.59,-6.51,0,*56
1514225237.12,59986,8.88,73686.8,-5.67,-6.59,-6.51,0,*57
1514225238.31,59987,8.94,73674.8,-5.67,-6.59,-6.59,0,*5E
1514225239.51,59988,8.94,73668.8,-5.67,-6.59,-6.51,0,*59
1514225240.71,59989,8.88,73664.5,-5.67,-6.51,-6.59,0,*58
1514225241.94,59990,8.88,73670.3,-5.65,-6.51,-6.59,0,*52
1514225243.14,59991,8.94,73670.5,-5.67,-6.51,-6.51,0,*59
1514225244.37,59992,8.94,73676.3,-5.65,-6.59,-6.51,0,*50
1514225245.59,59993,8.94,73670.3,-5.65,-6.59,-6.59,0,*59
1514225246.79,59994,8.88,73664.5,-5.67,-6.59,-6.51,0,*54
1514225247.99,59995,8.88,73660.3,-5.67,-6.51,-6.51,0,*5D
1514225249.21,59996,8.88,73660.8,-5.65,-6.59,-6.59,0,*5C
1514225250.44,59997,8.88,73656.3,-5.65,-6.59,-6.59,0,*5D
1514225251.64,59998,8.94,73652.8,-5.67,-6.59,-6.59,0,*50
1514225252.83,59999,8.94,73660.0,-5.67,-6.59,-6.59,0,*51
1514225254.03,60000,8.88,73644.0,-5.67,-6.51,-6.59,0,*5A
1514225255.23,60001,8.88,73652.8,-5.67,-6.59,-6.59,0,*53
1514225256.43,60002,8.88,73662.0,-5.67,-6.59,-6.59,0,*50
1514225257.67,60003,8.88,73662.8,-5.65,-6.63,-6.59,0,*5A
1514225258.9,60004,8.88,73662.0,-5.65,-6.59,-6.59,0,*54
1514225260.11,60005,8.88,73666.3,-5.67,-6.63,-6.59,0,*5E
1514225261.31,60006,8.88,73670.0,-5.67,-6.51,-6.59,0,*5C
1514225262.51,60007,8.94,73664.5,-5.67,-6.59,-6.51,0,*5D
1514225263.71,60008,8.88,73660.0,-5.67,-6.51,-6.59,0,*52
1514225264.91,60009,8.88,73664.0,-5.67,-6.59,-6.59,0,*5B
1514225266.11,60010,8.94,73674.0,-5.67,-6.51,-6.59,0,*5B
1514225267.33,60011,8.94,73674.5,-5.65,-6.59,-6.59,0,*50
1514225268.53,60012,8.88,73672.0,-5.67,-6.59,-6.51,0,*59
1514225269.73,60013,8.94,73668.5,-5.67,-6.51,-6.51,0,*50
1514225270.93,60014,8.88,73664.0,-5.67,-6.59,-6.51,0,*5F
1514225272.13,60015,8.94,73662.0,-5.67,-6.59,-6.59,0,*56
1514225273.33,60016,8.88,73648.0,-5.67,-6.51,-6.51,0,*55
1514225274.56,60017,8.88,73654.5,-5.65,-6.51,-6.59,0,*5E
1514225275.78,60018,8.94,73658.5,-5.65,-6.59,-6.51,0,*51
1514225276.98,60019,8.94,73668.8,-5.67,-6.51,-6.59,0,*52
1514225278.21,60020,8.88,73666.3,-5.65,-6.59,-6.51,0,*5A
1514225279.41,60021,8.94,73664.3,-5.67,-6.51,-6.59,0,*59
1514225280.63,60022,8.94,73654.0,-5.65,-6.59,-6.59,0,*50
1514225281.83,60023,8.88,73656.8,-5.67,-6.59,-6.51,0,*5B
1514225283.06,60024,8.88,73662.3,-5.65,-6.59,-6.59,0,*56
1514225284.25,60025,8.88,73662.8,-5.67,-6.59,-6.59,0,*55
1514225285.45,60026,8.94,73668.3,-5.67,-6.59,-6.51,0,*5E
1514225286.69,60027,8.88,73660.3,-5.65,-6.63,-6.59,0,*5C
1514225287.91,60028,8.88,73664.3,-5.67,-6.63,-6.51,0,*59
1514225289.14,60029,8.88,73668.0,-5.69,-6.59,-6.51,0,*5F
1514225290.33,60030,8.88,73654.8,-5.67,-6.59,-6.59,0,*51
1514225291.56,60031,8.88,73664.3,-5.65,-6.59,-6.59,0,*52
1514225292.78,60032,8.94,73658.5,-5.65,-6.59,-6.59,0,*51
1514225293.98,60033,8.88,73654.0,-5.67,-6.59,-6.51,0,*5A
1514225295.18,60034,8.94,73660.3,-5.67,-6.51,-6.59,0,*5D
1514225296.38,60035,8.94,73660.8,-5.67,-6.59,-6.59,0,*54
1514225297.58,60036,8.88,73658.5,-5.67,-6.51,-6.59,0,*5F
1514225298.78,60037,8.88,73656.3,-5.67,-6.59,-6.59,0,*56
1514225300.0,60038,8.94,73660.5,-5.65,-6.51,-6.59,0,*53
1514225301.2,60039,8.88,73652.8,-5.67,-6.59,-6.59,0,*58
1514225302.4,60040,8.88,73658.3,-5.67,-6.59,-6.59,0,*56
1514225303.6,60041,8.88,73660.3,-5.67,-6.59,-6.51,0,*5F
1514225304.82,60042,8.88,73662.5,-5.65,-6.59,-6.59,0,*56
1514225306.02,60043,8.88,73650.8,-5.67,-6.51,-6.59,0,*5D
1514225307.25,60044,8.88,73652.8,-5.65,-6.51,-6.51,0,*50
1514225308.45,60045,8.88,73660.0,-5.67,-6.51,-6.51,0,*53
1514225309.67,60046,8.88,73656.3,-5.67,-6.63,-6.51,0,*51
1514225310.87,60047,8.88,73658.5,-5.67,-6.59,-6.51,0,*59